[[{"header":{"parameterUnit":"m.s-1","parameterCategory":1,"la1":30.2991,"la2":30.254,"lo1":-89.0895,"lo2":-89.0444,"dy":0.0017,"dx":0.0017,"nx":28,"ny":28,"refTime":"2023-04-08T21:00:00:Z","depth":0,"parameterNumber":2,"parameterNumberName":"U-component_of_WINDS"},"data":[0,0,0,0,0,0,0,0,0,0,0,0,0,0,0,0,0,0,0,0,0,0,0,0,0,0,0,0,0,0,0,0,0,0,0,0,0,0,0,0,0,0,0,0,0,0,0,0,0,0,0,0,0,0,0,0,0,0,-4.0483,-4.0484,0,-4.0587,-4.0588,-4.059,-4.0534,-4.0531,-4.0528,-4.0526,-4.0634,-4.0639,-4.0644,0,0,0,0,0,0,0,0,0,0,0,0,0,-4.0237,-4.0242,-4.0483,-4.0484,-4.0485,-4.0587,-4.0588,-4.059,-4.0535,-4.0531,-4.0528,-4.0524,-4.0632,-4.0638,-4.0645,0,0,0,0,0,0,0,0,0,0,0,0,0,-4.0343,-4.0243,-4.0483,-4.047,-4.047,-4.0587,-4.0588,-4.059,-4.0535,-4.0531,-4.0527,-4.0523,-4.063,-4.0638,-4.0646,-4.0781,0,0,-4.0671,-4.0675,0,0,0,0,0,0,0,0,-4.0337,-4.0352,-4.0471,-4.0471,-4.0471,-4.0543,-4.0541,-4.0654,-4.0536,-4.0511,-4.0526,-4.0521,-4.0607,-4.0617,-4.0646,-4.0786,-4.0791,-4.0672,-4.0677,-4.068,-4.0683,0,0,0,0,0,0,0,-4.033,-4.0347,-4.0524,-4.0472,-4.0473,-4.046,-4.047,-4.0562,-4.0581,-4.0512,-4.0509,-4.0522,-4.0606,-4.0638,-4.0648,-4.0792,-4.0671,-4.0679,-4.0684,-4.0687,-4.105,-4.1055,0,0,0,0,0,0,-4.0323,-4.0341,-4.0521,-4.0527,-4.0392,-4.0467,-4.0479,-4.0524,-4.058,-4.0584,-4.0525,-4.0519,-4.0626,-4.0638,-4.0651,-4.0815,-4.068,-4.0688,-4.0693,-4.1046,-4.1051,-4.1056,0,0,0,0,0,0,-4.0318,-4.0339,-4.0517,-4.0433,-4.0455,-4.0476,-4.0528,-4.0529,-4.056,-4.059,-4.0593,-4.0554,-4.0623,-4.064,-4.0749,-4.0818,-4.0692,-4.0699,-4.104,-4.1047,-4.1054,-4.1142,0,0,0,0,0,0,-4.0311,-4.0338,-4.0389,-4.0435,-4.046,-4.0613,-4.0532,-4.0534,-4.0574,-4.0567,-4.0617,-4.0622,-4.0621,-4.0737,-4.0758,-4.0827,-4.0705,-4.1034,-4.1043,-4.1052,-4.1133,-4.1151,-4.1166,0,0,0,0,0,-4.0302,-4.041,-4.0392,-4.0414,-4.0524,-4.0617,-4.0631,-4.0628,-4.058,-4.0632,-4.0651,-4.062,-4.0806,-4.0749,-4.0771,-4.0844,-4.103,-4.1041,-4.1051,-4.1125,-4.1147,-4.1166,0,0,0,0,0,0,-4.0372,-4.0416,-4.0397,-4.0522,-4.0566,-4.0607,-4.0673,-4.0651,-4.071,-4.07,-4.0694,-4.0706,-4.082,-4.0843,-4.0778,-4.0978,-4.0911,-4.0926,-4.096,-4.0981,-4.0997,-4.099,-4.0712,0,0,0,0,0,-4.0402,-4.0473,-4.0507,-4.0615,-4.0638,-4.0652,-4.0692,-4.0686,-4.0731,-4.075,-4.0777,-4.0823,-4.0891,-4.0937,-4.1002,-4.1135,-4.1146,-4.1196,-4.1213,-4.1226,-4.124,-4.1314,-4.1337,-4.1091,-4.1091,-4.1091,0,0,-4.0464,-4.0497,-4.0543,-4.063,-4.0663,-4.0738,-4.0668,-4.075,-4.0805,-4.0762,-4.0868,-4.0889,-4.094,-4.1062,-4.1118,-4.1085,-4.131,-4.124,-4.125,-4.1257,-4.1327,-4.135,-4.1371,-4.1098,-4.1097,-4.1096,0,0,-4.0617,-4.0648,-4.0742,-4.0777,-4.0828,-4.0837,-4.0859,-4.0904,-4.0917,-4.1023,-4.0992,-4.1058,-4.1177,-4.1214,-4.1249,-4.1416,-4.1391,-4.1438,-4.1526,-4.1597,-4.1617,-4.1634,-4.1695,-4.1717,-4.1451,-4.1451,-4.1451,0,-4.0689,-4.08,-4.0793,-4.0877,-4.0917,-4.0881,-4.0976,-4.101,-4.1081,-4.1109,-4.1071,-4.122,-4.1251,-4.1382,-4.1423,-4.1452,-4.1478,-4.1433,-4.1614,-4.1631,-4.1647,-4.1706,-4.1728,-4.1457,-4.1456,-4.1456,-4.1455,0,-4.0886,-4.0963,-4.1032,-4.1102,-4.1149,-4.1238,-4.1245,-4.1294,-4.1283,-4.1296,-4.1405,-4.1441,-4.1513,-4.1543,-4.1534,-4.1674,-4.1652,-4.1614,-4.1547,-4.1676,-4.1731,-4.1753,-4.1465,-4.1463,-4.1461,-4.146,0,0,-4.1086,-4.115,-4.1176,-4.1207,-4.1261,-4.1321,-4.1409,-4.148,-4.1522,-4.1572,-4.1646,-4.1747,-4.1713,-4.1752,-4.1746,-4.1809,-4.1941,-4.1763,-4.1765,-4.1797,-4.2099,-4.2128,-4.2154,-4.1923,-4.1927,-4.1931,-4.2095,0,-4.1244,-4.1397,-4.1394,-4.1537,-4.1609,-4.1576,-4.1653,-4.1695,-4.1709,-4.1772,-4.1788,-4.186,-4.1808,-4.1832,-4.1893,-4.1912,-4.2002,-4.19,-4.1994,-4.1997,-4.1984,-4.2182,-4.2214,-4.2367,-4.2116,-4.212,-4.2123,0,-4.1448,-4.1505,-4.1655,-4.17,-4.173,-4.1799,-4.1863,-4.1924,-4.1971,-4.1977,-4.2021,-4.2006,-4.2096,-4.2024,-4.2149,-4.208,-4.2117,-4.2133,-4.2139,-4.2149,-4.2069,-4.2199,-4.2416,-4.244,-4.2156,-4.2153,-4.2151,0,-4.1582,-4.1695,-4.18,-4.1828,-4.1881,-4.1931,-4.1956,-4.1998,-4.2041,-4.2098,-4.2126,-4.2192,-4.2228,-4.228,-4.2283,-4.2231,-4.2409,-4.2338,-4.2418,-4.2418,-4.2458,-4.2456,-4.2686,-4.248,-4.248,-4.2479,-4.2479,0,-4.1759,-4.1853,-4.1861,-4.1926,-4.203,-4.2025,-4.2128,-4.2148,-4.2187,-4.2255,-4.223,-4.2295,-4.2294,-4.236,-4.2363,-4.2466,-4.2483,-4.2491,-4.2491,-4.2494,-4.2493,-4.252,-4.251,-4.2485,-4.2484,-4.2483,-4.2482,0,-4.1926,-4.1935,-4.2048,-4.2089,-4.2102,-4.2177,-4.2213,-4.2275,-4.2286,-4.2374,-4.2394,-4.2412,-4.2489,-4.2497,-4.2586,-4.2587,-4.2713,-4.2701,-4.2697,-4.2696,-4.2776,-4.2769,-4.3032,-4.3067,-4.2837,-4.284,-4.2841,0,-4.204,-4.2111,-4.216,-4.2204,-4.2232,-4.2303,-4.2347,-4.2344,-4.2391,-4.245,-4.2505,-4.2579,-4.2638,-4.2763,-4.2784,-4.2853,-4.2843,-4.293,-4.2853,-4.2854,-4.2846,-4.2843,-4.285,-4.2946,-4.2948,-4.295,-4.2952,0,-4.2241,-4.2241,-4.2305,-4.2371,-4.2424,-4.2475,-4.2524,-4.2561,-4.2565,-4.2618,-4.2696,-4.2742,-4.2833,-4.2908,-4.2975,-4.3,-4.2978,-4.2976,-4.2998,-4.3004,-4.2999,-4.3004,-4.274,-4.297,-4.2969,-4.2967,-4.2966,-4.2965,-4.2386,-4.2448,-4.2493,-4.2565,-4.2601,-4.2646,-4.2707,-4.2726,-4.2791,-4.2865,-4.2859,-4.2946,-4.2991,-4.3079,-4.311,-4.3178,-4.3149,-4.3181,-4.3189,-4.3198,-4.3207,-4.2987,-4.319,-4.3189,-4.3189,-4.3189,-4.3188,0,-4.2587,-4.2614,-4.268,-4.2748,-4.2805,-4.2778,-4.283,-4.2879,-4.2956,-4.3,-4.3059,-4.3149,-4.3221,-4.3248,-4.3319,-4.3368,-4.336,-4.3387,-4.3384,-4.3391,-4.3228,-4.3202,-4.3393,-4.3393,-4.3393,-4.3393,-4.3393,-4.3393,-4.2698,-4.2803,-4.2809,-4.2931,-4.2957,-4.3042,-4.3074,-4.3117,-4.3152,-4.3254,-4.3313,-4.333,-4.3368,-4.3441,-4.3506,-4.3512,-4.354,-4.3573,-4.3575,-4.3423,-4.3402,-4.3382,-4.3358,-4.3578,-4.3579,-4.3732,-4.3733,-4.3734]},{"header":{"parameterUnit":"m.s-1","parameterCategory":1,"la1":30.2991,"la2":30.254,"lo1":-89.0895,"lo2":-89.0444,"dy":0.0017,"dx":0.0017,"nx":28,"ny":28,"refTime":"2023-04-08T21:00:00:Z","depth":0,"parameterNumber":3,"parameterNumberName":"V-component_of_WINDS"},"data":[0,0,0,0,0,0,0,0,0,0,0,0,0,0,0,0,0,0,0,0,0,0,0,0,0,0,0,0,0,0,0,0,0,0,0,0,0,0,0,0,0,0,0,0,0,0,0,0,0,0,0,0,0,0,0,0,0,0,-5.2627,-5.2627,0,-5.2665,-5.2665,-5.2665,-5.2614,-5.2612,-5.261,-5.2608,-5.2642,-5.2645,-5.2647,0,0,0,0,0,0,0,0,0,0,0,0,0,-5.2506,-5.2508,-5.2627,-5.2627,-5.2628,-5.2665,-5.2665,-5.2666,-5.2614,-5.2612,-5.2609,-5.2607,-5.2641,-5.2645,-5.2648,0,0,0,0,0,0,0,0,0,0,0,0,0,-5.2552,-5.2509,-5.2627,-5.2607,-5.2605,-5.2664,-5.2665,-5.2666,-5.2614,-5.2612,-5.2609,-5.2606,-5.264,-5.2644,-5.2648,-5.2728,0,0,-5.266,-5.2662,0,0,0,0,0,0,0,0,-5.255,-5.2557,-5.2609,-5.2608,-5.2607,-5.2632,-5.2635,-5.2686,-5.2615,-5.2611,-5.2608,-5.2605,-5.2641,-5.2644,-5.2657,-5.2729,-5.2731,-5.266,-5.2663,-5.2665,-5.2666,0,0,0,0,0,0,0,-5.2547,-5.2555,-5.2642,-5.261,-5.2608,-5.2594,-5.2598,-5.2644,-5.2641,-5.2611,-5.2607,-5.2613,-5.2639,-5.2654,-5.2658,-5.2731,-5.266,-5.2664,-5.2666,-5.2668,-5.2869,-5.2872,0,0,0,0,0,0,-5.2546,-5.2552,-5.264,-5.2643,-5.2571,-5.2599,-5.2603,-5.2626,-5.264,-5.2639,-5.2615,-5.261,-5.2648,-5.2653,-5.2659,-5.2752,-5.2664,-5.2668,-5.267,-5.2866,-5.287,-5.2873,0,0,0,0,0,0,-5.2544,-5.2555,-5.2639,-5.2597,-5.2606,-5.2604,-5.2631,-5.2628,-5.2643,-5.2643,-5.2642,-5.2631,-5.2646,-5.2653,-5.2711,-5.2753,-5.267,-5.2674,-5.2863,-5.2867,-5.2872,-5.2941,0,0,0,0,0,0,-5.2541,-5.2554,-5.2585,-5.2598,-5.2609,-5.2692,-5.2633,-5.2631,-5.265,-5.2644,-5.2657,-5.2657,-5.2645,-5.2705,-5.2715,-5.2757,-5.2677,-5.2859,-5.2865,-5.287,-5.2935,-5.2947,-5.2958,0,0,0,0,0,-5.2537,-5.2602,-5.2587,-5.2598,-5.2648,-5.2695,-5.2701,-5.2687,-5.2654,-5.2684,-5.2685,-5.2656,-5.2747,-5.2712,-5.2722,-5.2766,-5.2856,-5.2863,-5.287,-5.2929,-5.2945,-5.2957,0,0,0,0,0,0,-5.2593,-5.2604,-5.2587,-5.2659,-5.2677,-5.2686,-5.2724,-5.2703,-5.2729,-5.2722,-5.2702,-5.2706,-5.2768,-5.2772,-5.2733,-5.2843,-5.2796,-5.2805,-5.2838,-5.2852,-5.2863,-5.2861,-5.268,0,0,0,0,0,-5.2615,-5.2653,-5.2659,-5.2722,-5.2732,-5.2727,-5.2747,-5.2735,-5.2751,-5.2758,-5.2762,-5.2778,-5.281,-5.2831,-5.2861,-5.2935,-5.2937,-5.297,-5.2982,-5.2991,-5.2999,-5.3038,-5.3053,-5.2895,-5.2895,-5.2895,0,0,-5.2658,-5.2669,-5.2694,-5.2734,-5.2746,-5.2785,-5.2733,-5.2777,-5.2805,-5.2764,-5.2819,-5.2823,-5.2839,-5.2906,-5.2935,-5.2911,-5.3043,-5.3,-5.3007,-5.301,-5.3047,-5.3061,-5.3075,-5.29,-5.2899,-5.2898,0,0,-5.2758,-5.277,-5.2824,-5.2837,-5.2857,-5.2853,-5.2866,-5.2878,-5.288,-5.2935,-5.2905,-5.2938,-5.2993,-5.3006,-5.302,-5.3125,-5.3099,-5.3135,-5.3194,-5.3233,-5.3245,-5.3256,-5.3293,-5.3306,-5.3143,-5.3143,-5.3143,0,-5.2809,-5.2868,-5.2853,-5.2899,-5.2918,-5.2884,-5.2937,-5.295,-5.2978,-5.2991,-5.2964,-5.3033,-5.3042,-5.3111,-5.3137,-5.3149,-5.3162,-5.3133,-5.3245,-5.3256,-5.3266,-5.33,-5.3314,-5.3147,-5.3147,-5.3146,-5.3146,0,-5.293,-5.2971,-5.3012,-5.3041,-5.3064,-5.3113,-5.3105,-5.3129,-5.3115,-5.3114,-5.317,-5.318,-5.321,-5.3226,-5.3212,-5.3293,-5.3277,-5.3248,-5.32,-5.3285,-5.3317,-5.3331,-5.3153,-5.3151,-5.315,-5.3149,0,0,-5.3066,-5.3087,-5.3102,-5.3115,-5.3134,-5.3165,-5.3212,-5.3244,-5.3265,-5.3285,-5.3323,-5.3371,-5.3345,-5.3361,-5.3348,-5.3382,-5.3463,-5.3348,-5.3348,-5.3369,-5.3552,-5.3574,-5.359,-5.3447,-5.345,-5.3452,-5.3551,0,-5.3165,-5.3249,-5.3237,-5.3317,-5.3354,-5.3323,-5.3364,-5.3379,-5.3379,-5.341,-5.3409,-5.3443,-5.3406,-5.3415,-5.3447,-5.3447,-5.35,-5.3439,-5.3481,-5.3483,-5.3478,-5.3607,-5.363,-5.3723,-5.3564,-5.3566,-5.3567,0,-5.3292,-5.3318,-5.3403,-5.3416,-5.3431,-5.3469,-5.3496,-5.3526,-5.3543,-5.354,-5.3558,-5.3539,-5.3585,-5.3537,-5.3599,-5.3559,-5.3575,-5.3577,-5.3581,-5.3584,-5.353,-5.3613,-5.3753,-5.3767,-5.3587,-5.3586,-5.3584,0,-5.3382,-5.3438,-5.3496,-5.3508,-5.3525,-5.3552,-5.356,-5.3574,-5.3594,-5.3618,-5.363,-5.3658,-5.3674,-5.3695,-5.3684,-5.365,-5.3748,-5.3699,-5.3746,-5.3747,-5.3768,-5.3767,-5.3912,-5.378,-5.3779,-5.3779,-5.3779,0,-5.3494,-5.3546,-5.3537,-5.3573,-5.363,-5.3616,-5.3673,-5.3677,-5.3689,-5.3724,-5.3698,-5.373,-5.3714,-5.3745,-5.3736,-5.3789,-5.3796,-5.3794,-5.3791,-5.3796,-5.3796,-5.3806,-5.3799,-5.3783,-5.3782,-5.3781,-5.3781,0,-5.3604,-5.36,-5.3661,-5.3673,-5.3677,-5.3719,-5.3728,-5.3761,-5.3759,-5.3803,-5.3812,-5.3808,-5.3844,-5.3835,-5.3873,-5.3867,-5.3933,-5.3922,-5.3928,-5.3925,-5.3973,-5.3968,-5.4129,-5.4149,-5.4004,-5.4006,-5.4007,0,-5.3676,-5.3716,-5.3732,-5.3755,-5.3765,-5.3801,-5.3821,-5.3808,-5.383,-5.3852,-5.3882,-5.3915,-5.3941,-5.3998,-5.3998,-5.4027,-5.4016,-5.407,-5.402,-5.4024,-5.4016,-5.4014,-5.4017,-5.408,-5.4082,-5.4083,-5.4084,0,-5.3803,-5.3799,-5.383,-5.3861,-5.3887,-5.391,-5.393,-5.3949,-5.3938,-5.3963,-5.4,-5.402,-5.406,-5.4093,-5.4119,-5.4125,-5.4103,-5.41,-5.4112,-5.4118,-5.412,-5.4119,-5.3955,-5.4096,-5.4095,-5.4094,-5.4094,-5.4093,-5.3896,-5.393,-5.3947,-5.3983,-5.3997,-5.4017,-5.4048,-5.4051,-5.4081,-5.4114,-5.4103,-5.4145,-5.4159,-5.4193,-5.4203,-5.4234,-5.4213,-5.4231,-5.4236,-5.424,-5.4246,-5.4116,-5.4239,-5.4239,-5.4238,-5.4238,-5.4238,0,-5.4021,-5.4031,-5.4064,-5.4094,-5.4122,-5.41,-5.4121,-5.4145,-5.4183,-5.4199,-5.4226,-5.4267,-5.4299,-5.4302,-5.4332,-5.4356,-5.4346,-5.4364,-5.4362,-5.4364,-5.4263,-5.425,-5.4372,-5.4372,-5.4372,-5.4372,-5.4372,-5.4372,-5.409,-5.4146,-5.4145,-5.4208,-5.4216,-5.4258,-5.4272,-5.429,-5.4303,-5.4351,-5.4378,-5.438,-5.4391,-5.4421,-5.4449,-5.4449,-5.4461,-5.4483,-5.4478,-5.4384,-5.4371,-5.4358,-5.4345,-5.4485,-5.4486,-5.4576,-5.4577,-5.4578]}]]